Time,TemperatureF,DewpointF,PressureIn,WindDirection,WindDirectionDegrees,WindSpeedMPH,WindSpeedGustMPH,Humidity,HourlyPrecipIn,Conditions,Clouds,dailyrainin,SoftwareType,DateUTC
2013-02-21 00:02:00,37.8,27.8,30.17,NE,45,7.0,8.0,67,0.00,,,0.00,WeatherCatV1.02B3,2013-02-21 06:02:00,
2013-02-21 00:07:00,37.8,27.8,30.17,NE,44,10.0,10.0,67,0.00,,,0.00,WeatherCatV1.02B3,2013-02-21 06:07:00,
2013-02-21 00:12:00,37.8,28.2,30.17,NE,46,6.0,9.0,68,0.00,,,0.00,WeatherCatV1.02B3,2013-02-21 06:12:00,
2013-02-21 00:17:00,37.8,27.8,30.16,ENE,65,8.0,9.0,67,0.00,,,0.00,WeatherCatV1.02B3,2013-02-21 06:17:00,
2013-02-21 00:22:00,37.8,27.5,30.17,ENE,67,4.0,10.0,66,0.00,,,0.00,WeatherCatV1.02B3,2013-02-21 06:22:00,
2013-02-21 00:27:00,37.8,27.8,30.16,ENE,57,4.0,9.0,67,0.00,,,0.00,WeatherCatV1.02B3,2013-02-21 06:27:00,
2013-02-21 00:32:00,37.8,27.5,30.16,NE,44,4.0,8.0,66,0.00,,,0.00,WeatherCatV1.02B3,2013-02-21 06:32:00,
2013-02-21 00:37:00,37.8,27.8,30.17,NE,47,4.0,10.0,67,0.00,,,0.00,WeatherCatV1.02B3,2013-02-21 06:37:00,
2013-02-21 00:42:00,37.8,28.6,30.17,NE,46,9.0,9.0,69,0.00,,,0.00,WeatherCatV1.02B3,2013-02-21 06:42:00,
2013-02-21 00:47:00,37.7,28.5,30.16,NE,54,6.0,8.0,69,0.00,,,0.00,WeatherCatV1.02B3,2013-02-21 06:47:00,
2013-02-21 00:52:00,37.7,28.5,30.17,NE,41,5.0,7.0,69,0.00,,,0.00,WeatherCatV1.02B3,2013-02-21 06:52:00,
2013-02-21 00:57:00,37.7,28.5,30.17,NE,49,7.0,9.0,69,0.00,,,0.00,WeatherCatV1.02B3,2013-02-21 06:57:00,
2013-02-21 01:02:00,37.7,28.5,30.16,ENE,66,3.0,6.0,69,0.00,,,0.00,WeatherCatV1.02B3,2013-02-21 07:02:00,
2013-02-21 01:07:00,37.7,28.1,30.16,NE,56,6.0,8.0,68,0.00,,,0.00,WeatherCatV1.02B3,2013-02-21 07:07:00,
2013-02-21 01:12:00,37.7,28.5,30.17,NE,52,4.0,10.0,69,0.00,,,0.00,WeatherCatV1.02B3,2013-02-21 07:12:00,
2013-02-21 01:17:00,37.7,28.5,30.16,ENE,68,5.0,9.0,69,0.00,,,0.00,WeatherCatV1.02B3,2013-02-21 07:17:00,
2013-02-21 01:22:00,37.8,28.9,30.16,NE,37,6.0,8.0,70,0.00,,,0.00,WeatherCatV1.02B3,2013-02-21 07:22:00,
2013-02-21 01:27:00,37.8,28.6,30.16,NE,52,5.0,9.0,69,0.00,,,0.00,WeatherCatV1.02B3,2013-02-21 07:27:00,
2013-02-21 01:32:00,37.8,28.9,30.16,NE,45,5.0,9.0,70,0.00,,,0.00,WeatherCatV1.02B3,2013-02-21 07:32:00,
2013-02-21 01:37:00,37.8,29.6,30.16,NE,53,7.0,8.0,72,0.00,,,0.00,WeatherCatV1.02B3,2013-02-21 07:37:00,
2013-02-21 01:42:00,37.7,29.5,30.15,NE,49,6.0,9.0,72,0.00,,,0.00,WeatherCatV1.02B3,2013-02-21 07:42:00,
2013-02-21 01:47:00,37.7,29.8,30.14,NE,42,6.0,9.0,73,0.00,,,0.00,WeatherCatV1.02B3,2013-02-21 07:47:00,
2013-02-21 01:52:00,37.6,29.7,30.13,NE,52,7.0,10.0,73,0.00,,,0.00,WeatherCatV1.02B3,2013-02-21 07:52:00,
2013-02-21 01:57:00,37.6,29.7,30.14,NE,41,4.0,12.0,73,0.00,,,0.00,WeatherCatV1.02B3,2013-02-21 07:57:00,
2013-02-21 02:02:00,37.6,30.1,30.13,NE,44,9.0,11.0,74,0.00,,,0.00,WeatherCatV1.02B3,2013-02-21 08:02:00,
2013-02-21 02:07:00,37.5,29.6,30.12,NE,50,7.0,13.0,73,0.00,,,0.00,WeatherCatV1.02B3,2013-02-21 08:07:00,
2013-02-21 02:12:00,37.6,29.7,30.12,NNE,19,8.0,10.0,73,0.00,,,0.00,WeatherCatV1.02B3,2013-02-21 08:12:00,
2013-02-21 02:17:00,37.6,29.1,30.11,NE,51,9.0,13.0,71,0.00,,,0.00,WeatherCatV1.02B3,2013-02-21 08:17:00,
2013-02-21 02:22:00,37.7,29.2,30.12,NE,53,7.0,11.0,71,0.00,,,0.00,WeatherCatV1.02B3,2013-02-21 08:22:00,
2013-02-21 02:27:00,37.7,28.8,30.12,ENE,59,10.0,14.0,70,0.00,,,0.00,WeatherCatV1.02B3,2013-02-21 08:27:00,
2013-02-21 02:32:00,37.8,28.9,30.11,ENE,77,7.0,10.0,70,0.00,,,0.00,WeatherCatV1.02B3,2013-02-21 08:32:00,
2013-02-21 02:37:00,37.8,28.9,30.12,NE,54,8.0,10.0,70,0.00,,,0.00,WeatherCatV1.02B3,2013-02-21 08:37:00,
2013-02-21 02:42:00,37.9,28.7,30.12,East,80,7.0,12.0,69,0.00,,,0.00,WeatherCatV1.02B3,2013-02-21 08:42:00,
2013-02-21 02:47:00,37.9,28.7,30.11,ENE,76,5.0,11.0,69,0.00,,,0.00,WeatherCatV1.02B3,2013-02-21 08:47:00,
2013-02-21 02:52:00,37.9,28.7,30.11,ENE,59,8.0,10.0,69,0.00,,,0.00,WeatherCatV1.02B3,2013-02-21 08:52:00,
2013-02-21 02:57:00,37.9,28.3,30.11,ENE,62,8.0,14.0,68,0.00,,,0.00,WeatherCatV1.02B3,2013-02-21 08:57:00,
2013-02-21 03:02:00,37.8,28.9,30.11,ENE,78,4.0,8.0,70,0.00,,,0.00,WeatherCatV1.02B3,2013-02-21 09:02:00,
2013-02-21 03:07:00,37.7,28.8,30.10,ENE,74,8.0,8.0,70,0.00,,,0.00,WeatherCatV1.02B3,2013-02-21 09:07:00,
2013-02-21 03:12:00,37.7,28.8,30.10,NE,48,8.0,11.0,70,0.00,,,0.00,WeatherCatV1.02B3,2013-02-21 09:12:00,
2013-02-21 03:17:00,37.7,28.8,30.11,NE,53,7.0,9.0,70,0.00,,,0.00,WeatherCatV1.02B3,2013-02-21 09:17:00,
2013-02-21 03:18:00,37.7,28.8,30.11,ENE,57,5.0,7.0,70,0.00,,,0.00,WeatherCatV1.02B3,2013-02-21 09:18:00,
2013-02-21 03:23:00,37.7,28.5,30.10,ENE,63,5.0,10.0,69,0.00,,,0.00,WeatherCatV1.02B3,2013-02-21 09:23:00,
2013-02-21 03:28:00,37.8,28.6,30.10,NE,40,6.0,10.0,69,0.00,,,0.00,WeatherCatV1.02B3,2013-02-21 09:28:00,
2013-02-21 03:33:00,37.8,28.6,30.11,ENE,67,10.0,13.0,69,0.00,,,0.00,WeatherCatV1.02B3,2013-02-21 09:33:00,
2013-02-21 03:38:00,37.8,28.2,30.11,NE,43,5.0,8.0,68,0.00,,,0.00,WeatherCatV1.02B3,2013-02-21 09:38:00,
2013-02-21 03:43:00,37.9,28.7,30.10,ENE,67,5.0,12.0,69,0.00,,,0.00,WeatherCatV1.02B3,2013-02-21 09:43:00,
2013-02-21 03:48:00,37.9,28.3,30.10,ENE,74,7.0,9.0,68,0.00,,,0.00,WeatherCatV1.02B3,2013-02-21 09:48:00,
2013-02-21 03:53:00,37.9,28.3,30.10,ENE,59,7.0,8.0,68,0.00,,,0.00,WeatherCatV1.02B3,2013-02-21 09:53:00,
2013-02-21 03:58:00,37.9,28.3,30.10,ENE,57,5.0,8.0,68,0.00,,,0.00,WeatherCatV1.02B3,2013-02-21 09:58:00,
2013-02-21 04:03:00,37.9,28.7,30.10,NE,47,5.0,9.0,69,0.00,,,0.00,WeatherCatV1.02B3,2013-02-21 10:03:00,
2013-02-21 04:08:00,38.0,28.4,30.09,ENE,77,5.0,13.0,68,0.00,,,0.00,WeatherCatV1.02B3,2013-02-21 10:08:00,
2013-02-21 04:13:00,38.0,28.4,30.09,ENE,67,4.0,12.0,68,0.00,,,0.00,WeatherCatV1.02B3,2013-02-21 10:13:00,
2013-02-21 04:18:00,38.0,28.4,30.09,NE,48,7.0,14.0,68,0.00,,,0.00,WeatherCatV1.02B3,2013-02-21 10:18:00,
2013-02-21 04:23:00,38.0,28.4,30.08,ENE,74,10.0,11.0,68,0.00,,,0.00,WeatherCatV1.02B3,2013-02-21 10:23:00,
2013-02-21 04:28:00,38.1,28.1,30.09,ENE,59,12.0,12.0,67,0.00,,,0.00,WeatherCatV1.02B3,2013-02-21 10:28:00,
2013-02-21 04:33:00,38.1,28.1,30.08,ENE,76,9.0,11.0,67,0.00,,,0.00,WeatherCatV1.02B3,2013-02-21 10:33:00,
2013-02-21 04:38:00,38.1,28.1,30.08,NE,48,10.0,11.0,67,0.00,,,0.00,WeatherCatV1.02B3,2013-02-21 10:38:00,
2013-02-21 04:43:00,38.1,28.5,30.08,ENE,65,8.0,10.0,68,0.00,,,0.00,WeatherCatV1.02B3,2013-02-21 10:43:00,
2013-02-21 04:48:00,38.2,28.6,30.08,ENE,61,9.0,9.0,68,0.00,,,0.00,WeatherCatV1.02B3,2013-02-21 10:48:00,
2013-02-21 04:53:00,38.1,28.5,30.08,NE,50,8.0,9.0,68,0.00,,,0.00,WeatherCatV1.02B3,2013-02-21 10:53:00,
2013-02-21 04:58:00,38.2,28.2,30.07,ENE,67,7.0,13.0,67,0.00,,,0.00,WeatherCatV1.02B3,2013-02-21 10:58:00,
2013-02-21 05:03:00,38.2,28.6,30.07,East,98,6.0,8.0,68,0.00,,,0.00,WeatherCatV1.02B3,2013-02-21 11:03:00,
2013-02-21 05:08:00,38.2,28.2,30.07,East,100,10.0,14.0,67,0.00,,,0.00,WeatherCatV1.02B3,2013-02-21 11:08:00,
2013-02-21 05:13:00,38.2,28.6,30.08,East,92,3.0,9.0,68,0.00,,,0.00,WeatherCatV1.02B3,2013-02-21 11:13:00,
2013-02-21 05:18:00,38.2,28.6,30.07,ENE,72,7.0,11.0,68,0.00,,,0.00,WeatherCatV1.02B3,2013-02-21 11:18:00,
2013-02-21 05:23:00,38.2,28.2,30.07,ENE,61,7.0,10.0,67,0.00,,,0.00,WeatherCatV1.02B3,2013-02-21 11:23:00,
2013-02-21 05:28:00,38.3,28.3,30.07,ENE,67,8.0,11.0,67,0.00,,,0.00,WeatherCatV1.02B3,2013-02-21 11:28:00,
2013-02-21 05:33:00,38.3,28.7,30.08,NE,40,6.0,8.0,68,0.00,,,0.00,WeatherCatV1.02B3,2013-02-21 11:33:00,
2013-02-21 05:38:00,38.3,28.7,30.08,NNE,31,6.0,9.0,68,0.00,,,0.00,WeatherCatV1.02B3,2013-02-21 11:38:00,
2013-02-21 05:43:00,38.3,28.7,30.09,ESE,115,5.0,11.0,68,0.00,,,0.00,WeatherCatV1.02B3,2013-02-21 11:43:00,
2013-02-21 05:48:00,38.3,28.7,30.09,ENE,78,4.0,7.0,68,0.00,,,0.00,WeatherCatV1.02B3,2013-02-21 11:48:00,
2013-02-21 05:53:00,38.4,28.8,30.10,East,79,9.0,9.0,68,0.00,,,0.00,WeatherCatV1.02B3,2013-02-21 11:53:00,
2013-02-21 05:58:00,38.4,28.8,30.10,East,84,7.0,10.0,68,0.00,,,0.00,WeatherCatV1.02B3,2013-02-21 11:58:00,
2013-02-21 06:03:00,38.4,28.8,30.10,East,83,8.0,9.0,68,0.00,,,0.00,WeatherCatV1.02B3,2013-02-21 12:03:00,
2013-02-21 06:08:00,38.4,28.8,30.09,East,84,6.0,9.0,68,0.00,,,0.00,WeatherCatV1.02B3,2013-02-21 12:08:00,
2013-02-21 06:13:00,38.4,29.5,30.09,East,99,6.0,9.0,70,0.00,,,0.00,WeatherCatV1.02B3,2013-02-21 12:13:00,
2013-02-21 06:18:00,38.3,29.4,30.09,East,80,10.0,11.0,70,0.00,,,0.00,WeatherCatV1.02B3,2013-02-21 12:18:00,
2013-02-21 06:23:00,38.3,29.4,30.09,ENE,74,5.0,8.0,70,0.00,,,0.00,WeatherCatV1.02B3,2013-02-21 12:23:00,
2013-02-21 06:28:00,38.3,29.0,30.08,ENE,69,5.0,13.0,69,0.00,,,0.00,WeatherCatV1.02B3,2013-02-21 12:28:00,
2013-02-21 06:33:00,38.4,29.5,30.08,East,94,7.0,9.0,70,0.00,,,0.00,WeatherCatV1.02B3,2013-02-21 12:33:00,
2013-02-21 06:38:00,38.4,29.5,30.07,East,96,6.0,8.0,70,0.00,,,0.00,WeatherCatV1.02B3,2013-02-21 12:38:00,
2013-02-21 06:43:00,38.4,29.5,30.07,East,84,7.0,10.0,70,0.00,,,0.00,WeatherCatV1.02B3,2013-02-21 12:43:00,
2013-02-21 06:48:00,38.4,29.5,30.07,ENE,67,8.0,10.0,70,0.00,,,0.00,WeatherCatV1.02B3,2013-02-21 12:48:00,
2013-02-21 06:53:00,38.5,29.6,30.07,East,96,7.0,10.0,70,0.00,,,0.00,WeatherCatV1.02B3,2013-02-21 12:53:00,
2013-02-21 06:58:00,38.5,29.9,30.07,East,86,7.0,10.0,71,0.00,,,0.00,WeatherCatV1.02B3,2013-02-21 12:58:00,
2013-02-21 07:03:00,38.5,29.9,30.07,ENE,78,5.0,9.0,71,0.00,,,0.00,WeatherCatV1.02B3,2013-02-21 13:03:00,
2013-02-21 07:08:00,38.7,29.8,30.07,ENE,74,5.0,8.0,70,0.00,,,0.00,WeatherCatV1.02B3,2013-02-21 13:08:00,
2013-02-21 07:13:00,38.8,29.9,30.06,East,96,7.0,11.0,70,0.00,,,0.00,WeatherCatV1.02B3,2013-02-21 13:13:00,
2013-02-21 07:18:00,38.8,30.2,30.06,ESE,105,5.0,9.0,71,0.00,,,0.00,WeatherCatV1.02B3,2013-02-21 13:18:00,
2013-02-21 07:23:00,38.8,30.2,30.06,ENE,62,4.0,8.0,71,0.00,,,0.00,WeatherCatV1.02B3,2013-02-21 13:23:00,
2013-02-21 07:28:00,38.7,30.1,30.05,ENE,78,8.0,13.0,71,0.00,,,0.00,WeatherCatV1.02B3,2013-02-21 13:28:00,
2013-02-21 07:33:00,38.8,30.2,30.05,ESE,113,7.0,9.0,71,0.00,,,0.00,WeatherCatV1.02B3,2013-02-21 13:33:00,
2013-02-21 07:38:00,38.9,29.6,30.04,ENE,78,14.0,14.0,69,0.00,,,0.00,WeatherCatV1.02B3,2013-02-21 13:38:00,
2013-02-21 07:43:00,39.1,29.8,30.04,East,85,7.0,14.0,69,0.00,,,0.00,WeatherCatV1.02B3,2013-02-21 13:43:00,
2013-02-21 07:48:00,39.3,29.6,30.04,East,101,11.0,17.0,68,0.00,,,0.00,WeatherCatV1.02B3,2013-02-21 13:48:00,
2013-02-21 07:53:00,39.5,29.5,30.05,ENE,59,7.0,14.0,67,0.00,,,0.00,WeatherCatV1.02B3,2013-02-21 13:53:00,
2013-02-21 07:58:00,39.6,29.9,30.04,East,98,9.0,13.0,68,0.00,,,0.00,WeatherCatV1.02B3,2013-02-21 13:58:00,
2013-02-21 08:03:00,39.7,29.3,30.04,ESE,110,12.0,15.0,66,0.00,,,0.00,WeatherCatV1.02B3,2013-02-21 14:03:00,
2013-02-21 08:08:00,39.9,29.1,30.04,East,98,8.0,13.0,65,0.00,,,0.00,WeatherCatV1.02B3,2013-02-21 14:08:00,
2013-02-21 08:13:00,40.1,29.3,30.05,SE,140,5.0,11.0,65,0.00,,,0.00,WeatherCatV1.02B3,2013-02-21 14:13:00,
2013-02-21 08:18:00,40.2,29.8,30.04,SE,126,6.0,13.0,66,0.00,,,0.00,WeatherCatV1.02B3,2013-02-21 14:18:00,
2013-02-21 08:23:00,40.4,30.0,30.03,East,97,14.0,14.0,66,0.00,,,0.00,WeatherCatV1.02B3,2013-02-21 14:23:00,
2013-02-21 08:28:00,40.6,29.4,30.03,East,86,9.0,15.0,64,0.00,,,0.00,WeatherCatV1.02B3,2013-02-21 14:28:00,
2013-02-21 08:33:00,40.7,29.5,30.02,SE,126,7.0,16.0,64,0.00,,,0.00,WeatherCatV1.02B3,2013-02-21 14:33:00,
2013-02-21 08:38:00,40.9,29.3,29.99,East,99,11.0,20.0,63,0.00,,,0.00,WeatherCatV1.02B3,2013-02-21 14:38:00,
2013-02-21 08:43:00,41.0,29.0,29.98,ESE,110,10.0,13.0,62,0.00,,,0.00,WeatherCatV1.02B3,2013-02-21 14:43:00,
2013-02-21 08:48:00,41.3,29.7,29.96,ESE,107,14.0,18.0,63,0.00,,,0.00,WeatherCatV1.02B3,2013-02-21 14:48:00,
2013-02-21 08:53:00,41.8,29.7,29.94,East,87,15.0,18.0,62,0.00,,,0.00,WeatherCatV1.02B3,2013-02-21 14:53:00,
2013-02-21 08:58:00,42.4,30.3,29.97,East,92,14.0,15.0,62,0.00,,,0.00,WeatherCatV1.02B3,2013-02-21 14:58:00,
2013-02-21 09:03:00,42.6,29.7,29.97,ESE,123,7.0,17.0,60,0.00,,,0.00,WeatherCatV1.02B3,2013-02-21 15:03:00,
2013-02-21 09:08:00,42.7,29.8,29.95,ESE,102,10.0,17.0,60,0.00,,,0.00,WeatherCatV1.02B3,2013-02-21 15:08:00,
2013-02-21 09:13:00,42.9,30.0,29.95,ESE,113,9.0,19.0,60,0.00,,,0.00,WeatherCatV1.02B3,2013-02-21 15:13:00,
2013-02-21 09:18:00,43.2,29.9,29.95,ESE,105,11.0,18.0,59,0.00,,,0.00,WeatherCatV1.02B3,2013-02-21 15:18:00,
2013-02-21 09:23:00,43.3,29.9,29.95,ESE,121,12.0,13.0,59,0.00,,,0.00,WeatherCatV1.02B3,2013-02-21 15:23:00,
2013-02-21 09:28:00,43.6,30.2,29.94,ESE,103,14.0,14.0,59,0.00,,,0.00,WeatherCatV1.02B3,2013-02-21 15:28:00,
2013-02-21 09:33:00,43.9,29.7,29.94,East,88,10.0,14.0,57,0.00,,,0.00,WeatherCatV1.02B3,2013-02-21 15:33:00,
2013-02-21 09:38:00,44.4,30.1,29.92,ENE,76,20.0,20.0,57,0.00,,,0.00,WeatherCatV1.02B3,2013-02-21 15:38:00,
2013-02-21 09:43:00,45.1,30.4,29.91,East,87,14.0,17.0,56,0.00,,,0.00,WeatherCatV1.02B3,2013-02-21 15:43:00,
2013-02-21 09:48:00,45.3,30.5,29.91,East,90,16.0,17.0,56,0.00,,,0.00,WeatherCatV1.02B3,2013-02-21 15:48:00,
2013-02-21 09:53:00,45.6,31.3,29.90,East,94,8.0,15.0,57,0.00,,,0.00,WeatherCatV1.02B3,2013-02-21 15:53:00,
2013-02-21 09:58:00,46.5,31.7,29.90,East,92,11.0,14.0,56,0.00,,,0.00,WeatherCatV1.02B3,2013-02-21 15:58:00,
2013-02-21 10:03:00,47.2,31.0,29.90,SE,138,9.0,22.0,53,0.00,,,0.00,WeatherCatV1.02B3,2013-02-21 16:03:00,
2013-02-21 10:08:00,47.2,31.0,29.90,ESE,105,10.0,13.0,53,0.00,,,0.00,WeatherCatV1.02B3,2013-02-21 16:08:00,
2013-02-21 10:13:00,47.0,30.8,29.90,ESE,106,14.0,16.0,53,0.00,,,0.00,WeatherCatV1.02B3,2013-02-21 16:13:00,
2013-02-21 10:18:00,47.0,31.7,29.89,East,100,11.0,13.0,55,0.00,,,0.00,WeatherCatV1.02B3,2013-02-21 16:18:00,
2013-02-21 10:23:00,47.1,30.9,29.90,ESE,118,10.0,18.0,53,0.00,,,0.00,WeatherCatV1.02B3,2013-02-21 16:23:00,
2013-02-21 10:28:00,47.3,31.0,29.88,ESE,113,8.0,13.0,53,0.00,,,0.00,WeatherCatV1.02B3,2013-02-21 16:28:00,
2013-02-21 10:33:00,47.5,31.7,29.88,ESE,122,12.0,14.0,54,0.00,,,0.00,WeatherCatV1.02B3,2013-02-21 16:33:00,
2013-02-21 10:38:00,47.4,31.1,29.86,SE,137,13.0,16.0,53,0.00,,,0.00,WeatherCatV1.02B3,2013-02-21 16:38:00,
2013-02-21 10:43:00,47.4,31.1,29.84,ESE,119,15.0,15.0,53,0.00,,,0.00,WeatherCatV1.02B3,2013-02-21 16:43:00,
2013-02-21 10:48:00,47.3,31.5,29.84,SE,127,9.0,17.0,54,0.00,,,0.00,WeatherCatV1.02B3,2013-02-21 16:48:00,
2013-02-21 10:53:00,47.3,31.0,29.84,SE,139,11.0,13.0,53,0.00,,,0.00,WeatherCatV1.02B3,2013-02-21 16:53:00,
2013-02-21 10:58:00,47.3,31.0,29.84,ESE,115,10.0,14.0,53,0.00,,,0.00,WeatherCatV1.02B3,2013-02-21 16:58:00,
2013-02-21 11:04:00,47.2,30.5,29.85,SE,146,1.0,16.0,52,0.00,,,0.00,WeatherCatV1.02B3,2013-02-21 17:04:00,
2013-02-21 11:09:00,47.3,32.0,29.88,SE,141,3.0,7.0,55,0.00,,,0.01,WeatherCatV1.02B3,2013-02-21 17:09:00,
2013-02-21 11:14:00,47.0,34.3,29.87,SE,130,9.0,11.0,61,0.29,,,0.03,WeatherCatV1.02B3,2013-02-21 17:14:00,
2013-02-21 11:19:00,46.1,34.6,29.83,SE,138,7.0,13.0,64,0.16,,,0.04,WeatherCatV1.02B3,2013-02-21 17:19:00,
2013-02-21 11:24:00,45.7,35.4,29.86,SE,128,7.0,10.0,67,0.07,,,0.04,WeatherCatV1.02B3,2013-02-21 17:24:00,
2013-02-21 11:29:00,45.4,35.8,29.85,East,94,9.0,10.0,69,0.06,,,0.05,WeatherCatV1.02B3,2013-02-21 17:29:00,
2013-02-21 11:34:00,45.2,35.6,29.85,SE,144,7.0,9.0,69,0.06,,,0.05,WeatherCatV1.02B3,2013-02-21 17:34:00,
2013-02-21 11:39:00,45.2,36.0,29.86,ESE,120,3.0,8.0,70,0.04,,,0.05,WeatherCatV1.02B3,2013-02-21 17:39:00,
2013-02-21 11:44:00,45.2,36.4,29.85,SE,142,2.0,3.0,71,0.04,,,0.06,WeatherCatV1.02B3,2013-02-21 17:44:00,
2013-02-21 11:49:00,45.1,36.3,29.86,SE,136,1.0,2.0,71,0.04,,,0.06,WeatherCatV1.02B3,2013-02-21 17:49:00,
2013-02-21 11:54:00,45.1,36.3,29.86,ENE,69,2.0,2.0,71,0.04,,,0.06,WeatherCatV1.02B3,2013-02-21 17:54:00,
2013-02-21 11:59:00,45.2,37.4,29.86,NNW,329,4.0,5.0,74,0.00,,,0.06,WeatherCatV1.02B3,2013-02-21 17:59:00,
2013-02-21 12:04:00,44.9,37.8,29.92,West,262,5.0,9.0,76,0.25,,,0.07,WeatherCatV1.02B3,2013-02-21 18:04:00,
2013-02-21 12:09:00,44.6,38.2,29.91,West,259,0.0,2.0,78,0.40,,,0.13,WeatherCatV1.02B3,2013-02-21 18:09:00,
2013-02-21 12:14:00,44.4,38.6,29.89,West,259,0.0,0.0,80,0.20,,,0.15,WeatherCatV1.02B3,2013-02-21 18:14:00,
2013-02-21 12:19:00,44.1,39.3,29.87,East,101,3.0,4.0,83,0.12,,,0.16,WeatherCatV1.02B3,2013-02-21 18:19:00,
2013-02-21 12:24:00,43.6,39.1,29.86,East,90,3.0,3.0,84,0.07,,,0.17,WeatherCatV1.02B3,2013-02-21 18:24:00,
2013-02-21 12:29:00,43.3,38.8,29.84,ENE,65,2.0,3.0,84,0.07,,,0.17,WeatherCatV1.02B3,2013-02-21 18:29:00,
2013-02-21 12:34:00,43.3,39.1,29.84,ENE,58,1.0,2.0,85,0.05,,,0.17,WeatherCatV1.02B3,2013-02-21 18:34:00,
2013-02-21 12:39:00,43.5,39.0,29.84,ENE,59,0.0,0.0,84,0.94,,,0.20,WeatherCatV1.02B3,2013-02-21 18:39:00,
2013-02-21 12:44:00,43.7,39.5,29.85,East,80,1.0,6.0,85,0.90,,,0.23,WeatherCatV1.02B3,2013-02-21 18:44:00,
2013-02-21 12:49:00,43.7,39.8,29.83,NE,55,3.0,5.0,86,0.23,,,0.25,WeatherCatV1.02B3,2013-02-21 18:49:00,
2013-02-21 12:54:00,43.6,39.7,29.84,ENE,61,2.0,4.0,86,0.88,,,0.30,WeatherCatV1.02B3,2013-02-21 18:54:00,
2013-02-21 12:59:00,43.3,39.7,29.84,NNW,345,5.0,5.0,87,0.59,,,0.35,WeatherCatV1.02B3,2013-02-21 18:59:00,
2013-02-21 13:04:00,43.0,40.0,29.85,North,11,6.0,8.0,89,0.40,,,0.40,WeatherCatV1.02B3,2013-02-21 19:04:00,
2013-02-21 13:09:00,42.7,40.0,29.85,NE,42,3.0,3.0,90,0.13,,,0.41,WeatherCatV1.02B3,2013-02-21 19:09:00,
2013-02-21 13:14:00,42.7,40.0,29.82,ESE,115,7.0,11.0,90,0.06,,,0.41,WeatherCatV1.02B3,2013-02-21 19:14:00,
2013-02-21 13:19:00,42.7,40.3,29.82,SE,124,3.0,7.0,91,0.04,,,0.41,WeatherCatV1.02B3,2013-02-21 19:19:00,
2013-02-21 13:24:00,42.9,40.5,29.83,ESE,111,0.0,0.0,91,0.00,,,0.41,WeatherCatV1.02B3,2013-02-21 19:24:00,
2013-02-21 13:29:00,43.0,40.6,29.82,ESE,113,2.0,7.0,91,0.00,,,0.41,WeatherCatV1.02B3,2013-02-21 19:29:00,
2013-02-21 13:34:00,43.2,40.8,29.81,ESE,112,4.0,7.0,91,0.00,,,0.42,WeatherCatV1.02B3,2013-02-21 19:34:00,
2013-02-21 13:39:00,43.3,41.1,29.81,East,100,7.0,7.0,92,0.00,,,0.42,WeatherCatV1.02B3,2013-02-21 19:39:00,
2013-02-21 13:44:00,43.4,41.2,29.80,East,93,9.0,10.0,92,0.00,,,0.42,WeatherCatV1.02B3,2013-02-21 19:44:00,
2013-02-21 13:49:00,43.4,41.0,29.80,SSE,152,2.0,10.0,91,0.00,,,0.42,WeatherCatV1.02B3,2013-02-21 19:49:00,
2013-02-21 13:54:00,43.5,41.0,29.79,ESE,120,7.0,13.0,91,0.00,,,0.42,WeatherCatV1.02B3,2013-02-21 19:54:00,
2013-02-21 13:59:00,43.7,41.2,29.79,ESE,123,3.0,9.0,91,0.00,,,0.42,WeatherCatV1.02B3,2013-02-21 19:59:00,
2013-02-21 14:04:00,44.0,41.5,29.79,ESE,120,7.0,10.0,91,0.00,,,0.42,WeatherCatV1.02B3,2013-02-21 20:04:00,
2013-02-21 14:09:00,44.2,41.7,29.78,ESE,110,9.0,11.0,91,0.00,,,0.42,WeatherCatV1.02B3,2013-02-21 20:09:00,
2013-02-21 14:14:00,44.3,41.8,29.78,ESE,119,7.0,7.0,91,0.00,,,0.42,WeatherCatV1.02B3,2013-02-21 20:14:00,
2013-02-21 14:19:00,44.8,42.3,29.78,SE,130,4.0,10.0,91,0.00,,,0.42,WeatherCatV1.02B3,2013-02-21 20:19:00,
2013-02-21 14:24:00,45.1,42.6,29.78,ESE,113,5.0,9.0,91,0.00,,,0.42,WeatherCatV1.02B3,2013-02-21 20:24:00,
2013-02-21 14:29:00,45.4,42.9,29.77,ESE,109,7.0,9.0,91,0.00,,,0.42,WeatherCatV1.02B3,2013-02-21 20:29:00,
2013-02-21 14:34:00,45.5,42.7,29.78,ESE,103,3.0,11.0,90,0.00,,,0.42,WeatherCatV1.02B3,2013-02-21 20:34:00,
2013-02-21 14:39:00,45.5,42.7,29.78,East,91,6.0,6.0,90,0.00,,,0.42,WeatherCatV1.02B3,2013-02-21 20:39:00,
2013-02-21 14:44:00,45.6,42.8,29.79,ESE,106,3.0,5.0,90,0.00,,,0.42,WeatherCatV1.02B3,2013-02-21 20:44:00,
2013-02-21 14:49:00,45.6,42.8,29.80,ENE,70,1.0,2.0,90,0.00,,,0.42,WeatherCatV1.02B3,2013-02-21 20:49:00,
2013-02-21 14:54:00,45.7,42.9,29.79,ESE,107,3.0,6.0,90,0.00,,,0.42,WeatherCatV1.02B3,2013-02-21 20:54:00,
2013-02-21 14:59:00,45.8,43.0,29.78,ESE,110,2.0,5.0,90,0.00,,,0.42,WeatherCatV1.02B3,2013-02-21 20:59:00,
2013-02-21 15:04:00,45.9,43.1,29.78,East,91,5.0,7.0,90,0.00,,,0.42,WeatherCatV1.02B3,2013-02-21 21:04:00,
2013-02-21 15:09:00,46.0,43.5,29.78,East,86,3.0,8.0,91,0.00,,,0.42,WeatherCatV1.02B3,2013-02-21 21:09:00,
2013-02-21 15:14:00,46.1,43.6,29.77,ESE,109,4.0,9.0,91,0.00,,,0.42,WeatherCatV1.02B3,2013-02-21 21:14:00,
2013-02-21 15:19:00,46.2,43.7,29.77,ESE,103,5.0,8.0,91,0.00,,,0.42,WeatherCatV1.02B3,2013-02-21 21:19:00,
2013-02-21 15:24:00,46.2,43.7,29.77,ESE,109,4.0,9.0,91,0.00,,,0.42,WeatherCatV1.02B3,2013-02-21 21:24:00,
2013-02-21 15:29:00,46.3,43.8,29.75,ESE,111,8.0,8.0,91,0.00,,,0.42,WeatherCatV1.02B3,2013-02-21 21:29:00,
2013-02-21 15:34:00,46.3,43.8,29.75,ESE,114,5.0,9.0,91,0.00,,,0.42,WeatherCatV1.02B3,2013-02-21 21:34:00,
2013-02-21 15:39:00,46.4,44.2,29.76,ESE,122,2.0,4.0,92,0.00,,,0.42,WeatherCatV1.02B3,2013-02-21 21:39:00,
2013-02-21 15:44:00,46.5,44.3,29.76,ESE,105,4.0,5.0,92,0.00,,,0.42,WeatherCatV1.02B3,2013-02-21 21:44:00,
2013-02-21 15:49:00,46.7,44.5,29.77,East,89,0.0,7.0,92,0.00,,,0.42,WeatherCatV1.02B3,2013-02-21 21:49:00,
2013-02-21 15:54:00,46.8,44.6,29.76,East,95,7.0,9.0,92,0.00,,,0.42,WeatherCatV1.02B3,2013-02-21 21:54:00,
2013-02-21 15:59:00,47.0,44.8,29.78,SE,126,5.0,5.0,92,0.00,,,0.43,WeatherCatV1.02B3,2013-02-21 21:59:00,
2013-02-21 16:04:00,47.2,44.7,29.76,SE,128,4.0,7.0,91,0.00,,,0.43,WeatherCatV1.02B3,2013-02-21 22:04:00,
2013-02-21 16:09:00,47.2,44.7,29.77,ENE,78,4.0,6.0,91,0.00,,,0.43,WeatherCatV1.02B3,2013-02-21 22:09:00,
2013-02-21 16:14:00,47.3,44.8,29.77,East,94,2.0,7.0,91,0.00,,,0.43,WeatherCatV1.02B3,2013-02-21 22:14:00,
2013-02-21 16:19:00,47.3,44.8,29.77,ESE,111,5.0,7.0,91,0.00,,,0.43,WeatherCatV1.02B3,2013-02-21 22:19:00,
2013-02-21 16:24:00,47.3,44.8,29.75,East,98,8.0,9.0,91,0.00,,,0.43,WeatherCatV1.02B3,2013-02-21 22:24:00,
2013-02-21 16:29:00,47.3,44.8,29.74,ESE,111,5.0,11.0,91,0.00,,,0.43,WeatherCatV1.02B3,2013-02-21 22:29:00,
2013-02-21 16:34:00,47.1,44.9,29.74,East,86,10.0,13.0,92,0.00,,,0.43,WeatherCatV1.02B3,2013-02-21 22:34:00,
2013-02-21 16:39:00,47.0,44.8,29.75,ESE,108,7.0,8.0,92,0.00,,,0.43,WeatherCatV1.02B3,2013-02-21 22:39:00,
2013-02-21 16:44:00,46.8,44.6,29.75,ESE,110,4.0,11.0,92,0.00,,,0.43,WeatherCatV1.02B3,2013-02-21 22:44:00,
2013-02-21 16:49:00,46.7,44.8,29.75,ESE,113,7.0,9.0,93,0.00,,,0.43,WeatherCatV1.02B3,2013-02-21 22:49:00,
2013-02-21 16:54:00,46.8,44.9,29.75,ESE,115,4.0,9.0,93,0.00,,,0.43,WeatherCatV1.02B3,2013-02-21 22:54:00,
2013-02-21 16:59:00,46.9,45.0,29.74,ENE,78,5.0,12.0,93,0.00,,,0.43,WeatherCatV1.02B3,2013-02-21 22:59:00,
2013-02-21 17:04:00,47.0,45.1,29.74,East,85,7.0,10.0,93,0.00,,,0.43,WeatherCatV1.02B3,2013-02-21 23:04:00,
2013-02-21 17:09:00,47.0,45.1,29.75,ESE,117,7.0,8.0,93,0.00,,,0.43,WeatherCatV1.02B3,2013-02-21 23:09:00,
2013-02-21 17:14:00,47.1,45.2,29.74,ESE,122,4.0,4.0,93,0.00,,,0.43,WeatherCatV1.02B3,2013-02-21 23:14:00,
2013-02-21 17:19:00,47.3,45.4,29.73,East,79,8.0,10.0,93,0.00,,,0.43,WeatherCatV1.02B3,2013-02-21 23:19:00,
2013-02-21 17:24:00,47.4,45.5,29.74,ENE,65,3.0,8.0,93,0.00,,,0.43,WeatherCatV1.02B3,2013-02-21 23:24:00,
2013-02-21 17:29:00,47.5,45.6,29.74,East,90,2.0,9.0,93,0.00,,,0.43,WeatherCatV1.02B3,2013-02-21 23:29:00,
2013-02-21 17:34:00,47.5,45.6,29.75,East,84,3.0,5.0,93,0.00,,,0.43,WeatherCatV1.02B3,2013-02-21 23:34:00,
2013-02-21 17:39:00,47.6,45.4,29.75,ESE,111,3.0,3.0,92,0.00,,,0.43,WeatherCatV1.02B3,2013-02-21 23:39:00,
2013-02-21 17:44:00,47.6,45.4,29.75,East,97,3.0,5.0,92,0.00,,,0.43,WeatherCatV1.02B3,2013-02-21 23:44:00,
2013-02-21 17:49:00,47.7,45.5,29.75,East,97,7.0,8.0,92,0.00,,,0.43,WeatherCatV1.02B3,2013-02-21 23:49:00,
2013-02-21 17:54:00,47.7,45.5,29.75,ESE,116,3.0,7.0,92,0.00,,,0.43,WeatherCatV1.02B3,2013-02-21 23:54:00,
2013-02-21 17:59:00,47.7,45.5,29.73,East,96,11.0,14.0,92,0.00,,,0.43,WeatherCatV1.02B3,2013-02-21 23:59:00,
2013-02-21 18:04:00,47.8,45.6,29.74,ESE,112,3.0,5.0,92,0.00,,,0.43,WeatherCatV1.02B3,2013-02-22 00:04:00,
2013-02-21 18:09:00,47.8,45.9,29.74,ESE,107,8.0,10.0,93,0.00,,,0.43,WeatherCatV1.02B3,2013-02-22 00:09:00,
2013-02-21 18:14:00,48.0,46.1,29.74,East,101,6.0,7.0,93,0.00,,,0.43,WeatherCatV1.02B3,2013-02-22 00:14:00,
2013-02-21 18:19:00,48.1,46.2,29.74,ESE,103,8.0,9.0,93,0.00,,,0.43,WeatherCatV1.02B3,2013-02-22 00:19:00,
2013-02-21 18:24:00,48.1,45.9,29.75,ESE,113,3.0,6.0,92,0.00,,,0.43,WeatherCatV1.02B3,2013-02-22 00:24:00,
2013-02-21 18:29:00,48.2,46.3,29.75,SE,128,4.0,5.0,93,0.00,,,0.43,WeatherCatV1.02B3,2013-02-22 00:29:00,
2013-02-21 18:34:00,48.3,46.4,29.75,ESE,117,4.0,10.0,93,0.00,,,0.43,WeatherCatV1.02B3,2013-02-22 00:34:00,
2013-02-21 18:39:00,48.4,46.5,29.75,SE,126,3.0,8.0,93,0.00,,,0.43,WeatherCatV1.02B3,2013-02-22 00:39:00,
2013-02-21 18:44:00,48.5,46.6,29.76,SE,132,2.0,7.0,93,0.00,,,0.43,WeatherCatV1.02B3,2013-02-22 00:44:00,
2013-02-21 18:49:00,48.6,46.7,29.76,ESE,117,4.0,5.0,93,0.00,,,0.43,WeatherCatV1.02B3,2013-02-22 00:49:00,
2013-02-21 18:54:00,48.7,46.8,29.76,SE,137,3.0,5.0,93,0.00,,,0.43,WeatherCatV1.02B3,2013-02-22 00:54:00,
2013-02-21 18:59:00,48.7,46.8,29.76,ESE,115,5.0,8.0,93,0.00,,,0.43,WeatherCatV1.02B3,2013-02-22 00:59:00,
2013-02-21 19:04:00,48.8,46.9,29.76,ESE,123,0.0,3.0,93,0.00,,,0.44,WeatherCatV1.02B3,2013-02-22 01:04:00,
2013-02-21 19:09:00,48.8,46.9,29.76,ESE,110,3.0,5.0,93,0.00,,,0.44,WeatherCatV1.02B3,2013-02-22 01:09:00,
2013-02-21 19:14:00,48.8,47.2,29.76,SE,124,0.0,3.0,94,0.00,,,0.44,WeatherCatV1.02B3,2013-02-22 01:14:00,
2013-02-21 19:19:00,48.9,47.2,29.78,SSW,194,0.0,2.0,94,0.00,,,0.44,WeatherCatV1.02B3,2013-02-22 01:19:00,
2013-02-21 19:24:00,48.9,47.2,29.78,SSW,202,0.0,2.0,94,0.00,,,0.44,WeatherCatV1.02B3,2013-02-22 01:24:00,
2013-02-21 19:29:00,48.8,47.2,29.80,West,262,6.0,6.0,94,0.00,,,0.44,WeatherCatV1.02B3,2013-02-22 01:29:00,
2013-02-21 19:34:00,48.7,47.3,29.80,WNW,296,7.0,11.0,95,0.00,,,0.45,WeatherCatV1.02B3,2013-02-22 01:34:00,
2013-02-21 19:39:00,48.4,47.0,29.81,NW,305,7.0,9.0,95,0.00,,,0.45,WeatherCatV1.02B3,2013-02-22 01:39:00,
2013-02-21 19:44:00,48.0,46.6,29.81,WNW,299,8.0,11.0,95,0.07,,,0.46,WeatherCatV1.02B3,2013-02-22 01:44:00,
2013-02-21 19:49:00,47.8,46.4,29.80,NW,311,4.0,5.0,95,0.07,,,0.46,WeatherCatV1.02B3,2013-02-22 01:49:00,
2013-02-21 19:54:00,47.7,46.6,29.80,NW,319,5.0,8.0,96,0.04,,,0.46,WeatherCatV1.02B3,2013-02-22 01:54:00,
2013-02-21 19:59:00,47.6,46.5,29.81,NW,315,5.0,8.0,96,0.00,,,0.46,WeatherCatV1.02B3,2013-02-22 01:59:00,
2013-02-21 20:04:00,47.5,46.4,29.81,NW,314,6.0,7.0,96,0.00,,,0.46,WeatherCatV1.02B3,2013-02-22 02:04:00,
2013-02-21 20:09:00,47.5,46.4,29.80,NNW,327,2.0,6.0,96,0.00,,,0.46,WeatherCatV1.02B3,2013-02-22 02:09:00,
2013-02-21 20:14:00,47.5,46.4,29.81,NNW,327,1.0,2.0,96,0.00,,,0.46,WeatherCatV1.02B3,2013-02-22 02:14:00,
2013-02-21 20:19:00,47.5,46.4,29.82,NNW,327,4.0,4.0,96,0.00,,,0.46,WeatherCatV1.02B3,2013-02-22 02:19:00,
2013-02-21 20:24:00,47.5,46.4,29.82,NW,306,1.0,6.0,96,0.00,,,0.46,WeatherCatV1.02B3,2013-02-22 02:24:00,
2013-02-21 20:29:00,47.4,46.3,29.82,NW,307,0.0,3.0,96,0.00,,,0.46,WeatherCatV1.02B3,2013-02-22 02:29:00,
2013-02-21 20:34:00,47.4,46.3,29.83,NW,307,0.0,0.0,96,0.00,,,0.46,WeatherCatV1.02B3,2013-02-22 02:34:00,
2013-02-21 20:39:00,47.3,46.2,29.83,NW,307,1.0,1.0,96,0.00,,,0.46,WeatherCatV1.02B3,2013-02-22 02:39:00,
2013-02-21 20:44:00,47.2,46.1,29.83,NW,307,0.0,0.0,96,0.00,,,0.46,WeatherCatV1.02B3,2013-02-22 02:44:00,
2013-02-21 20:49:00,47.1,46.0,29.84,WNW,301,4.0,7.0,96,0.00,,,0.46,WeatherCatV1.02B3,2013-02-22 02:49:00,
2013-02-21 20:54:00,46.9,45.8,29.85,NW,306,6.0,8.0,96,0.00,,,0.46,WeatherCatV1.02B3,2013-02-22 02:54:00,
2013-02-21 20:59:00,46.6,45.5,29.86,NW,306,7.0,11.0,96,0.00,,,0.46,WeatherCatV1.02B3,2013-02-22 02:59:00,
2013-02-21 21:04:00,46.3,45.2,29.86,NW,306,7.0,8.0,96,0.00,,,0.46,WeatherCatV1.02B3,2013-02-22 03:04:00,
2013-02-21 21:09:00,46.2,45.1,29.87,NW,316,4.0,5.0,96,0.00,,,0.46,WeatherCatV1.02B3,2013-02-22 03:09:00,
2013-02-21 21:14:00,46.1,45.0,29.87,NW,312,8.0,8.0,96,0.00,,,0.46,WeatherCatV1.02B3,2013-02-22 03:14:00,
2013-02-21 21:19:00,46.1,45.0,29.87,NW,312,7.0,9.0,96,0.00,,,0.46,WeatherCatV1.02B3,2013-02-22 03:19:00,
2013-02-21 21:24:00,46.0,44.9,29.88,WNW,300,9.0,10.0,96,0.00,,,0.46,WeatherCatV1.02B3,2013-02-22 03:24:00,
2013-02-21 21:29:00,45.9,44.8,29.88,NW,306,8.0,11.0,96,0.00,,,0.46,WeatherCatV1.02B3,2013-02-22 03:29:00,
2013-02-21 21:34:00,45.7,44.6,29.88,WNW,299,12.0,13.0,96,0.00,,,0.46,WeatherCatV1.02B3,2013-02-22 03:34:00,
2013-02-21 21:39:00,45.4,44.3,29.88,NW,307,9.0,12.0,96,0.00,,,0.46,WeatherCatV1.02B3,2013-02-22 03:39:00,
2013-02-21 21:44:00,45.2,44.1,29.89,WNW,294,9.0,12.0,96,0.00,,,0.46,WeatherCatV1.02B3,2013-02-22 03:44:00,
2013-02-21 21:49:00,44.9,43.8,29.89,WNW,300,10.0,12.0,96,0.00,,,0.46,WeatherCatV1.02B3,2013-02-22 03:49:00,
2013-02-21 21:54:00,44.6,43.5,29.89,WNW,292,10.0,11.0,96,0.00,,,0.46,WeatherCatV1.02B3,2013-02-22 03:54:00,
2013-02-21 21:59:00,44.4,43.3,29.89,NW,307,9.0,11.0,96,0.00,,,0.46,WeatherCatV1.02B3,2013-02-22 03:59:00,
2013-02-21 22:04:00,44.1,43.0,29.89,WNW,302,13.0,13.0,96,0.00,,,0.46,WeatherCatV1.02B3,2013-02-22 04:04:00,
2013-02-21 22:09:00,43.9,42.8,29.90,WNW,303,9.0,14.0,96,0.00,,,0.46,WeatherCatV1.02B3,2013-02-22 04:09:00,
2013-02-21 22:14:00,43.8,42.7,29.90,NW,311,10.0,14.0,96,0.00,,,0.46,WeatherCatV1.02B3,2013-02-22 04:14:00,
2013-02-21 22:19:00,43.6,42.5,29.90,NW,317,12.0,12.0,96,0.00,,,0.46,WeatherCatV1.02B3,2013-02-22 04:19:00,
2013-02-21 22:24:00,43.4,42.3,29.90,NW,321,8.0,12.0,96,0.00,,,0.46,WeatherCatV1.02B3,2013-02-22 04:24:00,
2013-02-21 22:29:00,43.3,42.2,29.91,NW,319,8.0,11.0,96,0.00,,,0.46,WeatherCatV1.02B3,2013-02-22 04:29:00,
2013-02-21 22:34:00,43.2,42.1,29.91,WNW,298,8.0,12.0,96,0.00,,,0.46,WeatherCatV1.02B3,2013-02-22 04:34:00,
2013-02-21 22:39:00,43.0,42.2,29.91,NW,306,10.0,11.0,97,0.00,,,0.46,WeatherCatV1.02B3,2013-02-22 04:39:00,
2013-02-21 22:44:00,42.8,42.0,29.91,NW,320,9.0,11.0,97,0.00,,,0.46,WeatherCatV1.02B3,2013-02-22 04:44:00,
2013-02-21 22:49:00,42.4,41.3,29.91,WNW,301,10.0,12.0,96,0.00,,,0.46,WeatherCatV1.02B3,2013-02-22 04:49:00,
2013-02-21 22:54:00,42.3,41.5,29.91,WNW,300,7.0,8.0,97,0.00,,,0.46,WeatherCatV1.02B3,2013-02-22 04:54:00,
2013-02-21 22:59:00,42.2,41.4,29.91,NW,304,6.0,9.0,97,0.00,,,0.46,WeatherCatV1.02B3,2013-02-22 04:59:00,
2013-02-21 23:00:00,42.2,41.4,29.91,NW,306,2.0,9.0,97,0.00,,,0.46,WeatherCatV1.02B3,2013-02-22 05:00:00,
2013-02-21 23:05:00,42.1,41.3,29.91,NW,313,3.0,6.0,97,0.00,,,0.46,WeatherCatV1.02B3,2013-02-22 05:05:00,
2013-02-21 23:10:00,42.0,41.2,29.91,NNW,332,0.0,4.0,97,0.00,,,0.46,WeatherCatV1.02B3,2013-02-22 05:10:00,
2013-02-21 23:15:00,42.0,41.2,29.91,NW,316,6.0,6.0,97,0.00,,,0.46,WeatherCatV1.02B3,2013-02-22 05:15:00,
2013-02-21 23:20:00,42.0,41.2,29.91,NW,320,3.0,5.0,97,0.00,,,0.46,WeatherCatV1.02B3,2013-02-22 05:20:00,
2013-02-21 23:25:00,42.0,41.2,29.91,NW,321,5.0,5.0,97,0.00,,,0.46,WeatherCatV1.02B3,2013-02-22 05:25:00,
2013-02-21 23:30:00,41.9,41.1,29.92,NNW,342,5.0,6.0,97,0.00,,,0.46,WeatherCatV1.02B3,2013-02-22 05:30:00,
2013-02-21 23:35:00,41.7,40.9,29.92,NNW,340,4.0,8.0,97,0.00,,,0.46,WeatherCatV1.02B3,2013-02-22 05:35:00,
2013-02-21 23:40:00,41.6,40.8,29.92,NNW,335,5.0,7.0,97,0.00,,,0.46,WeatherCatV1.02B3,2013-02-22 05:40:00,
2013-02-21 23:45:00,41.4,40.6,29.92,NW,325,4.0,5.0,97,0.00,,,0.46,WeatherCatV1.02B3,2013-02-22 05:45:00,
2013-02-21 23:50:00,41.4,40.6,29.92,NNE,30,3.0,4.0,97,0.00,,,0.46,WeatherCatV1.02B3,2013-02-22 05:50:00,
2013-02-21 23:55:00,41.3,40.5,29.92,NNE,13,2.0,4.0,97,0.00,,,0.46,WeatherCatV1.02B3,2013-02-22 05:55:00,